Location: Unspecified
(48.8656°N, 0.0000°E)
Time: 02:58:41
(UTC+00:00)

Vanguard 1 - All Passes

Search period start: 17 June 2019 00:00
Search period end: 27 June 2019 00:00
Orbit: 654 x 3829 km, 34.2° (Epoch: 15 June)

Date Brightness Start Highest point End Pass type
(mag) Time Alt. Az. Time Alt. Az. Time Alt. Az.
17 Jun - 01:52:20 10° S 01:59:28 14° SSE 02:05:08 10° SE visible
17 Jun - 04:10:33 10° SW 04:20:46 26° S 04:27:22 10° ESE daylight
17 Jun - 06:33:21 10° WSW 06:40:59 26° S 06:46:01 10° SE daylight
17 Jun - 08:57:44 10° SW 08:59:51 12° SSW 09:01:45 10° S daylight
18 Jun - 02:10:24 10° SSW 02:20:25 19° SSE 02:27:40 10° ESE visible
18 Jun - 04:30:56 10° SW 04:41:40 29° S 04:48:23 10° ESE daylight
18 Jun - 06:54:25 10° WSW 07:01:40 25° SSW 07:06:33 10° SE daylight
19 Jun - 02:29:32 10° SSW 02:41:23 24° SSE 02:49:24 10° ESE visible
19 Jun - 04:51:36 10° SW 05:02:32 32° S 05:09:14 10° ESE daylight
19 Jun - 07:15:37 10° WSW 07:22:17 23° SSW 07:26:55 10° SSE daylight
20 Jun - 00:32:31 10° S 00:40:25 14° SE 00:46:57 10° ESE visible
20 Jun - 02:49:18 10° SW 03:02:21 28° SSE 03:10:44 10° ESE visible
20 Jun - 05:12:29 10° WSW 05:23:22 33° S 05:29:58 10° ESE daylight
20 Jun - 07:37:00 10° WSW 07:42:50 20° SSW 07:47:04 10° SSE daylight
21 Jun - 00:49:50 10° S 01:01:21 19° SSE 01:10:01 10° ESE visible
21 Jun - 03:09:30 10° SW 03:23:18 32° S 03:31:50 10° ESE visible
21 Jun - 05:33:30 10° WSW 05:44:09 33° S 05:50:37 10° SE daylight
21 Jun - 07:58:42 10° WSW 08:03:16 16° SW 08:06:50 10° S daylight
22 Jun - 01:08:29 10° SSW 01:22:17 24° SSE 01:32:03 10° ESE visible
22 Jun - 03:30:02 10° SW 03:44:15 36° S 03:52:47 10° ESE daylight
22 Jun - 05:54:41 10° WSW 06:04:52 31° SSW 06:11:09 10° SE daylight
22 Jun - 08:21:10 10° WSW 08:23:38 12° SW 08:25:47 10° SSW daylight
22 Jun - 23:13:55 10° SSE 23:20:57 13° SE 23:27:08 10° ESE visible
23 Jun - 01:27:52 10° SSW 01:43:15 29° SSE 01:53:35 10° ESE visible
23 Jun - 03:50:48 10° WSW 04:05:09 38° S 04:13:37 10° ESE daylight
23 Jun - 06:15:58 10° WSW 06:25:30 28° SSW 06:31:31 10° SE daylight
23 Jun - 23:29:54 10° S 23:41:45 18° SE 23:51:22 10° ESE visible
24 Jun - 01:47:47 10° SW 02:04:13 34° SSE 02:14:50 10° ESE visible
24 Jun - 04:11:47 10° WSW 04:26:02 39° S 04:34:21 10° ESE daylight
24 Jun - 06:37:24 10° WSW 06:46:02 25° SSW 06:51:43 10° SSE daylight
24 Jun - 23:47:52 10° S 00:02:37 23° SSE 00:13:53 10° ESE visible
25 Jun - 02:08:05 10° SW 02:25:12 38° SSE 02:35:53 10° ESE visible
25 Jun - 04:32:54 10° WSW 04:46:51 39° S 04:55:00 10° SE daylight
25 Jun - 06:59:03 10° WSW 07:06:27 20° SW 07:11:38 10° S daylight
26 Jun - 00:06:47 10° SSW 00:23:30 28° SSE 00:35:43 10° E visible
26 Jun - 02:28:41 10° SW 02:46:11 41° S 02:56:50 10° ESE visible
26 Jun - 04:54:09 10° WSW 05:07:37 37° SSW 05:15:32 10° SE daylight
26 Jun - 07:21:05 10° WSW 07:26:47 16° SW 07:31:06 10° S daylight
26 Jun - 22:11:19 10° SSE 22:21:49 15° SE 22:31:07 10° ESE visible
